Location: Katowice
(50.2611°N, 19.0242°E)
Time: 12:13:09
(UTC+02:00)

A-11 Canister half - Pass Details

Date: 30 July 2019
Orbit: 1526 x 1683 km, 47.3° (Epoch: 19 August)

Event Time Altitude Azimuth Distance (km) Brightness Sun altitude
Rises 18:52:52 0° 225° (SW) 4,926 12.1 13.7°
Reaches altitude 10° 18:56:10 10° 220° (SW) 3,938 11.6 13.2°
Maximum altitude 19:05:44 50° 150° (SSE) 2,043 9.6 11.7°
Drops below altitude 10° 19:15:08 10° 79° (E) 3,876 10.6 10.3°
Sets 19:18:21 0° 74° (ENE) 4,844 11.1 9.8°
